EST,Max TemperatureF,Mean TemperatureF,Min TemperatureF,Max Dew PointF,MeanDew PointF,Min DewpointF,Max Humidity, Mean Humidity, Min Humidity, Max Sea Level PressureIn, Mean Sea Level PressureIn, Min Sea Level PressureIn, Max VisibilityMiles, Mean VisibilityMiles, Min VisibilityMiles, Max Wind SpeedMPH, Mean Wind SpeedMPH, Max Gust SpeedMPH,PrecipitationIn, CloudCover, Events, WindDirDegrees
2011-12-1,35,30,24,30,27,16,93,85,64,30.29,30.19,30.06,10,7,2,16,4,23,0.00,7,Rain-Snow,341
2011-12-2,35,25,15,28,18,10,80,71,59,30.39,30.34,30.29,10,10,10,21,8,29,0.00,3,,245
2011-12-3,41,38,35,37,35,28,93,88,65,30.27,30.11,29.99,10,5,1,21,13,32,0.00,8,Rain,217
2011-12-4,42,37,32,39,34,28,93,87,81,30.14,29.88,29.74,10,7,2,14,9,21,0.00,8,Rain-Snow,324
2011-12-5,30,26,21,27,20,14,86,75,68,30.41,30.33,30.24,10,10,5,16,9,23,0.00,8,Snow,333
2011-12-6,26,24,21,18,15,12,80,69,55,30.37,30.26,30.07,10,10,10,10,6,18,0.00,7,Snow,343
2011-12-7,26,24,21,18,16,10,74,67,51,30.02,29.88,29.82,10,10,2,14,8,21,0.00,6,Snow,259
2011-12-8,26,22,17,18,7,-4,80,55,26,30.06,29.95,29.86,10,10,10,15,8,23,0.00,2,,263
2011-12-9,21,16,10,3,2,-2,67,55,39,30.23,30.12,30.06,10,10,10,16,6,21,0.00,0,,268
2011-12-10,26,15,6,16,3,-2,73,60,46,30.31,30.27,30.22,10,10,10,13,8,23,0.00,4,Snow,258
2011-12-11,39,32,26,36,27,18,87,78,65,30.21,30.13,30.08,10,9,7,18,11,26,0.00,3,,217
2011-12-12,37,36,35,34,32,28,93,87,75,30.30,30.25,30.17,10,4,1,13,7,21,0.00,7,Rain-Snow,223
2011-12-13,39,36,33,36,34,30,93,91,87,30.37,30.34,30.31,7,3,0,5,2,,0.00,8,Fog,335
2011-12-14,41,39,37,39,36,34,93,91,87,30.26,29.99,29.63,3,1,0,12,5,16,0.00,8,Fog-Rain,131
2011-12-15,39,32,26,37,32,21,93,89,80,29.93,29.59,29.44,10,8,0,24,6,33,0.00,8,Fog-Rain-Snow,280
2011-12-16,28,24,19,23,17,10,80,75,63,30.33,30.24,29.95,10,10,3,21,12,36,0.00,8,Snow,320
2011-12-17,28,17,6,25,15,1,93,78,64,30.32,30.19,30.02,10,8,0,12,3,17,0.00,5,Snow,250
2011-12-18,39,32,24,34,25,19,87,79,69,30.06,29.93,29.64,10,10,10,21,8,30,0.00,7,,228
2011-12-19,37,32,28,32,26,18,87,75,64,30.17,29.84,29.59,10,10,10,17,9,28,0.00,6,Rain-Snow,309
2011-12-20,32,28,24,27,20,16,86,69,60,30.24,30.03,29.78,10,10,10,15,5,22,0.00,6,,231
2011-12-21,37,30,24,27,23,18,86,71,45,29.78,29.69,29.61,10,10,10,14,6,17,0.00,2,Snow,253
2011-12-22,33,27,21,28,22,16,93,76,60,30.22,30.09,29.85,10,9,3,15,7,23,0.00,8,Rain-Snow,324
2011-12-23,26,18,10,21,15,7,93,80,59,30.25,30.20,30.13,10,8,1,10,4,16,0.00,5,Snow,275
2011-12-24,35,24,12,27,21,10,93,80,69,30.21,30.10,29.91,10,10,7,16,3,26,0.00,7,,220
2011-12-25,33,32,30,30,27,23,87,81,75,30.15,29.92,29.76,10,8,1,18,7,26,0.00,8,Snow,278
2011-12-26,39,36,32,34,28,25,81,74,65,30.16,29.97,29.71,10,10,10,24,10,37,0.00,2,,212
2011-12-27,39,28,17,30,23,9,81,75,65,29.87,29.63,29.53,10,10,5,29,13,43,0.00,7,Rain-Snow,302
2011-12-28,24,18,12,18,6,3,80,67,53,30.04,29.98,29.87,10,10,10,18,9,29,0.00,7,Snow,356
2011-12-29,30,28,26,28,26,21,93,86,74,29.82,29.64,29.55,10,6,1,16,11,23,0.00,8,Snow,119
2011-12-30,32,30,28,30,27,27,93,91,86,29.78,29.72,29.65,10,6,1,10,6,,0.00,8,Snow,28
2011-12-31,37,27,17,34,27,16,93,88,81,29.94,29.85,29.75,10,7,0,13,4,18,0.00,7,Fog-Snow,161